Regional Weather Roundup
Issued by NWS

Home | Current Version | Previous Version | Graphics & Text | Print | Product List | Glossary On
Versions: 1 2 3 4 5 6 7 8 9 10 11 12 13 14 15 16 17 18 19 20 21 22 23 24 25 26 27 28 29 30 31 32 33 34 35 36 37 38 39 40 41 42 43 44 45 46 47 48 49 50
000
ASUS43 KDMX 200701
RWRIA

WEATHER ROUNDUP FOR IOWA
NATIONAL WEATHER SERVICE DES MOINES IA
200 AM CDT THU JUL 20 2017

NOTE: "FAIR" INDICATES FEW OR NO CLOUDS BELOW 12,000 FEET WITH NO
SIGNIFICANT WEATHER AND/OR OBSTRUCTIONS TO VISIBILITY.

* - THESE STATIONS ARE NOT NWS STATIONS...THUS NOT UNDER NWS
QUALITY CONTROL.  THEY ALSO DO NOT REPORT WEATHER SUCH
AS PRECIPITATION OR FOG.

IAZ001>003-012>014-020>022-031>034-043>046-200800-
   NORTHWEST IOWA

CITY           SKY/WX    TMP DP  RH WIND       PRES   REMARKS
CARROLL *      CLOUDY    84  73  70 SW17G29   29.91R HX  91
CHEROKEE *     CLOUDY    78  76  95 CALM      29.92R HX  80
DENISON *      CLOUDY    82  73  74 S12       29.93R HX  88
ORANGE CITY *  CLOUDY    81  75  83 N3        29.92R HX  86
SHELDON *      MOCLDY    75  73  94 NE10      29.93R
SIOUX CITY     CLOUDY    89  72  56 W8        29.89R HX  96
SPENCER        PTCLDY    78  73  84 N10G21    29.95R HX  81
STORM LAKE *   CLOUDY    81  75  83 W6        29.95R HX  86
$$

IAZ055>058-069>071-079>083-090>094-200800-
   SOUTHWEST IOWA

CITY           SKY/WX    TMP DP  RH WIND       PRES   REMARKS
ATLANTIC *     MOCLDY    81  73  78 S18       29.93F HX  85
AUDUBON *      CLOUDY    82  73  74 SW9G22    29.95R HX  88
CLARINDA *       N/A     77  73  88 S6        30.00R
COUNCIL BLFS * CLOUDY    82  73  74 S10       29.96F HX  88
CRESTON *      MOCLDY    81  73  78 S15G23    29.98S HX  85
HARLAN  *      CLOUDY    81  73  78 SW16G22   29.96R HX  85
LAMONI         CLOUDY    80  73  79 S13       29.99F HX  84
RED OAK *      MOCLDY    79  73  83 S9        29.96F HX  82
SHENANDOAH *   CLOUDY    79  73  83 SW6       29.98S HX  82
$$

IAZ047>049-059>061-072>074-084-200800-
   CENTRAL IOWA

CITY           SKY/WX    TMP DP  RH WIND       PRES   REMARKS
AMES           CLOUDY    82  76  81 S8        29.92S HX  89
ANKENY *       CLOUDY    84  73  70 S12       29.93F HX  91
BOONE *        MOCLDY    82  75  78 SW12      29.93R HX  89
CHARITON *     CLOUDY    81  73  78 S15       29.96S HX  85
DES MOINES     CLOUDY    84  73  69 S13       29.92S HX  90
GRINNELL*      MOCLDY    78  73  84 S8        29.97S HX  81
KNOXVILLE *    CLOUDY    82  72  69 SW13G21   29.94R HX  87
MARSHALLTOWN   CLOUDY    81  75  82 S9        29.93F HX  87
NEWTON *       CLOUDY    81  73  78 SW13      29.95F HX  85
PELLA *        MOCLDY    82  72  70 S7        29.96S HX  87
PERRY *          N/A     83  75  76 SW12G18   29.92R HX  91
$$

IAZ004>006-015-016-023>025-035-036-200800-
   NORTH CENTRAL IOWA

CITY           SKY/WX    TMP DP  RH WIND       PRES   REMARKS
ALGONA *       CLOUDY    79  79 100 S6        29.95R HX  83
CLARION *      PTCLDY    75  75 100 S6        29.96R
ESTHERVILLE    CLOUDY    71  70  96 N9        29.95R
FORT DODGE *   CLOUDY    79  73  83 CALM      29.96R HX  82
MASON CITY     PTCLDY    72  71  97 CALM      29.95R
FOREST CITY *    N/A     73  72  94 CALM      29.94R
WEBSTER CITY * MOCLDY    79  75  89 CALM      29.93R HX  82
IOWA FALLS *     N/A     78  74  88 SW3       29.96R HX  81
$$

IAZ007>011-017>019-026>030-037>042-050>054-066-200800-
   NORTHEAST IOWA

CITY           SKY/WX    TMP DP  RH WIND       PRES   REMARKS
CEDAR RAPIDS   CLOUDY    76  75  97 S8        29.96F
CHARLES CITY * CLOUDY    72  72 100 S6        29.94S
CLINTON *      CLOUDY    71  68  90 SE9       29.99F
DECORAH *      CLOUDY    68  66  94 E8        29.96F
DUBUQUE        CLOUDY    69  65  86 S13       29.95F
MONTICELLO *   CLOUDY    72  70  94 SE8       29.96F
OELWEIN *      CLOUDY    75  73  94 SE13      29.97S
WATERLOO       MOCLDY    77  72  84 S9        29.94S
$$

IAZ064-065-067-068-078-200800-
   EAST CENTRAL IOWA

CITY           SKY/WX    TMP DP  RH WIND       PRES   REMARKS
DAVENPORT      CLOUDY    73  69  87 E7        30.01F
IOWA CITY      MOCLDY    78  73  84 SE12      29.98F HX  81
MUSCATINE *    MOCLDY    77  72  83 SE6       29.98F
QUAD CITIES    MOCLDY    76  68  76 VRB3      29.99F
$$

IAZ062-063-075>077-085>089-095>099-200800-
   SOUTHEAST IOWA

CITY           SKY/WX    TMP DP  RH WIND       PRES   REMARKS
BURLINGTON     PTCLDY    79  76  90 S6        30.01F HX  83
FAIRFIELD *    CLOUDY    81  73  78 S10       29.98S HX  85
FORT MADISON * PTCLDY    79  75  89 S5        30.01F HX  82
KEOKUK *       CLOUDY    82  73  74 S9G15     30.00F HX  88
OSKALOOSA *      N/A     81  74  79 S9        29.97F HX  85
OTTUMWA        CLOUDY    80  76  87 S7        29.97R HX  86
WASHINGTON *   PTCLDY    77  75  94 S7        29.98F
$$

ABBREVIATIONS USED IN REMARKS
   TC - TEMPERATURES IN CELSIUS
  WCI - WIND CHILL INDEX
   HX - HEAT INDEX
  VSB - VISIBILITY
$$





USA.gov is the U.S. government's official web portal to all federal, state and local government web resources and services.